[[{"header":{"parameterUnit":"m.s-1","parameterCategory":1,"la1":30.2991,"la2":30.254,"lo1":-89.0895,"lo2":-89.0444,"dy":0.0017,"dx":0.0017,"nx":28,"ny":28,"refTime":"2025-03-25T21:00:00:Z","depth":0,"parameterNumber":2,"parameterNumberName":"U-component_of_WINDS"},"data":[0,0,0,0,0,0,0,0,0,0,0,0,0,0,0,0,0,0,0,0,0,0,0,0,0,0,0,0,0,0,0,0,0,0,0,0,0,0,0,0,0,0,0,0,0,0,0,0,0,0,0,0,0,0,0,0,0,0,0.4728,0.4729,0,0.4748,0.4748,0.4748,0.4711,0.471,0.4709,0.4707,0.473,0.4732,0.4734,0,0,0,0,0,0,0,0,0,0,0,0,0,0.4663,0.4664,0.4728,0.4729,0.4729,0.4748,0.4748,0.4748,0.4711,0.471,0.4708,0.4707,0.473,0.4732,0.4734,0,0,0,0,0,0,0,0,0,0,0,0,0,0.4688,0.4665,0.4728,0.4713,0.4711,0.4748,0.4748,0.4748,0.4712,0.471,0.4708,0.4706,0.4729,0.4731,0.4734,0.4787,0,0,0.4742,0.4743,0,0,0,0,0,0,0,0,0.4687,0.469,0.4715,0.4714,0.4713,0.4725,0.4733,0.4762,0.4712,0.4712,0.4707,0.4705,0.473,0.4733,0.474,0.4788,0.4789,0.4742,0.4744,0.4745,0.4746,0,0,0,0,0,0,0,0.4685,0.4689,0.4736,0.4715,0.4714,0.4706,0.4707,0.4738,0.4731,0.4712,0.4709,0.4712,0.4729,0.4738,0.4741,0.479,0.4742,0.4745,0.4746,0.4747,0.4884,0.4886,0,0,0,0,0,0,0.4685,0.4688,0.4736,0.4737,0.4695,0.4708,0.471,0.4723,0.4731,0.473,0.4713,0.471,0.4734,0.4738,0.4741,0.4805,0.4745,0.4748,0.4749,0.4882,0.4885,0.4887,0,0,0,0,0,0,0.4683,0.4689,0.4735,0.4712,0.4717,0.4712,0.4726,0.4724,0.4733,0.4732,0.4731,0.4723,0.4733,0.4738,0.4776,0.4806,0.4749,0.4751,0.488,0.4883,0.4886,0.4933,0,0,0,0,0,0,0.4682,0.4689,0.4708,0.4712,0.4718,0.4769,0.4728,0.4726,0.4737,0.4733,0.4741,0.474,0.4732,0.4773,0.4779,0.4808,0.4753,0.4877,0.4881,0.4885,0.4929,0.4938,0.4945,0,0,0,0,0,0.4679,0.4721,0.471,0.4715,0.4742,0.477,0.4774,0.4762,0.474,0.476,0.4759,0.474,0.4801,0.4777,0.4784,0.4814,0.4875,0.488,0.4884,0.4926,0.4936,0.4945,0,0,0,0,0,0,0.4722,0.4722,0.4708,0.4753,0.4762,0.4764,0.4789,0.4773,0.479,0.4785,0.4771,0.4773,0.4815,0.4818,0.4791,0.4867,0.4835,0.4841,0.4864,0.4873,0.4881,0.488,0.4755,0,0,0,0,0,0.4736,0.4758,0.4757,0.4796,0.4801,0.4794,0.4806,0.4797,0.4806,0.481,0.4812,0.4823,0.4844,0.4859,0.4878,0.4929,0.4931,0.4954,0.4961,0.4968,0.4974,0.5003,0.5013,0.4902,0.4902,0.4902,0,0,0.4766,0.4769,0.4784,0.4805,0.4811,0.4835,0.4798,0.4825,0.4843,0.4814,0.4851,0.4853,0.4864,0.4909,0.4929,0.4913,0.5005,0.4974,0.4979,0.4982,0.5008,0.5019,0.5028,0.4905,0.4905,0.4904,0,0,0.4834,0.4837,0.4871,0.4878,0.4887,0.4882,0.489,0.4895,0.4895,0.4931,0.491,0.4932,0.4969,0.4979,0.4988,0.506,0.5044,0.5067,0.5108,0.5136,0.5145,0.5153,0.518,0.519,0.5072,0.5072,0.5073,0,0.4871,0.4905,0.489,0.4919,0.493,0.4903,0.4938,0.4946,0.4961,0.497,0.4951,0.4998,0.5003,0.5051,0.5069,0.5077,0.5087,0.5066,0.5145,0.5152,0.516,0.5185,0.5195,0.5075,0.5075,0.5075,0.5074,0,0.4951,0.4975,0.5001,0.5016,0.503,0.5061,0.5053,0.5068,0.5057,0.5055,0.5093,0.5099,0.512,0.513,0.512,0.5177,0.5167,0.5147,0.5114,0.5173,0.5197,0.5207,0.5079,0.5078,0.5077,0.5077,0,0,0.5046,0.5052,0.5062,0.5069,0.5078,0.5097,0.5128,0.5148,0.5162,0.5174,0.52,0.5233,0.5214,0.5225,0.5216,0.524,0.5299,0.5217,0.5217,0.5233,0.5364,0.538,0.5391,0.5287,0.5289,0.529,0.5363,0,0.5114,0.5166,0.5154,0.5206,0.523,0.5205,0.5233,0.5242,0.524,0.5261,0.526,0.5283,0.5256,0.5263,0.5286,0.5287,0.5325,0.5281,0.5314,0.5315,0.5313,0.5403,0.542,0.5489,0.5372,0.5374,0.5375,0,0.52,0.5215,0.5269,0.5275,0.5284,0.5309,0.5326,0.5345,0.5356,0.5353,0.5366,0.5352,0.5384,0.535,0.5395,0.5366,0.5379,0.5381,0.5383,0.5387,0.5349,0.5411,0.551,0.5521,0.5389,0.5388,0.5387,0,0.5266,0.5299,0.5336,0.5343,0.535,0.5368,0.5372,0.538,0.5393,0.5409,0.5417,0.5437,0.5448,0.5464,0.5457,0.5432,0.5504,0.5469,0.5504,0.5505,0.5521,0.5521,0.5625,0.5527,0.5527,0.5527,0.5527,0,0.5344,0.5379,0.5366,0.5389,0.5428,0.5414,0.5453,0.5454,0.5462,0.5486,0.5466,0.5489,0.5477,0.55,0.5494,0.5533,0.5538,0.5538,0.5536,0.5541,0.5541,0.555,0.5545,0.553,0.5529,0.5528,0.5528,0,0.5425,0.5417,0.5456,0.546,0.5461,0.549,0.5493,0.5515,0.5512,0.5543,0.5549,0.5546,0.5571,0.5565,0.5593,0.559,0.5639,0.5631,0.5636,0.5634,0.567,0.5668,0.5785,0.5801,0.5692,0.5693,0.5694,0,0.5476,0.5502,0.5508,0.5522,0.5527,0.555,0.5563,0.5551,0.5565,0.5579,0.56,0.5624,0.5642,0.5685,0.5685,0.5707,0.57,0.574,0.5703,0.5707,0.5702,0.5702,0.5705,0.5748,0.5749,0.575,0.5751,0,0.5567,0.5562,0.5581,0.56,0.5615,0.5629,0.5641,0.5654,0.5643,0.5661,0.5687,0.5701,0.573,0.5754,0.5774,0.578,0.5764,0.5762,0.5771,0.5777,0.5779,0.578,0.5657,0.576,0.5759,0.5758,0.5757,0.5757,0.5635,0.5658,0.5666,0.5688,0.5696,0.5708,0.5729,0.5729,0.5749,0.5771,0.5763,0.5793,0.5803,0.5829,0.5837,0.5861,0.5846,0.5859,0.5863,0.5867,0.5872,0.5774,0.5864,0.5864,0.5864,0.5863,0.5863,0,0.5727,0.5731,0.5751,0.5769,0.5787,0.5769,0.5782,0.5798,0.5824,0.5835,0.5853,0.5884,0.5907,0.591,0.5933,0.5952,0.5945,0.5958,0.5957,0.5959,0.5883,0.5873,0.5963,0.5963,0.5963,0.5963,0.5963,0.5963,0.5777,0.5815,0.5811,0.5852,0.5856,0.5884,0.5894,0.5905,0.5914,0.5948,0.5967,0.5968,0.5976,0.5999,0.6021,0.6021,0.6031,0.6047,0.6045,0.5974,0.5964,0.5955,0.5946,0.6049,0.6049,0.6119,0.612,0.612]},{"header":{"parameterUnit":"m.s-1","parameterCategory":1,"la1":30.2991,"la2":30.254,"lo1":-89.0895,"lo2":-89.0444,"dy":0.0017,"dx":0.0017,"nx":28,"ny":28,"refTime":"2025-03-25T21:00:00:Z","depth":0,"parameterNumber":3,"parameterNumberName":"V-component_of_WINDS"},"data":[0,0,0,0,0,0,0,0,0,0,0,0,0,0,0,0,0,0,0,0,0,0,0,0,0,0,0,0,0,0,0,0,0,0,0,0,0,0,0,0,0,0,0,0,0,0,0,0,0,0,0,0,0,0,0,0,0,0,-0.2847,-0.2847,0,-0.2883,-0.2883,-0.2884,-0.2901,-0.2901,-0.2901,-0.2901,-0.2939,-0.294,-0.2941,0,0,0,0,0,0,0,0,0,0,0,0,0,-0.2794,-0.2795,-0.2847,-0.2847,-0.2848,-0.2883,-0.2883,-0.2884,-0.2901,-0.2901,-0.2901,-0.2901,-0.2938,-0.294,-0.2941,0,0,0,0,0,0,0,0,0,0,0,0,0,-0.2822,-0.2795,-0.2847,-0.2861,-0.2862,-0.2883,-0.2883,-0.2884,-0.2901,-0.2901,-0.2901,-0.2901,-0.2938,-0.2939,-0.2941,-0.2951,0,0,-0.2946,-0.2946,0,0,0,0,0,0,0,0,-0.282,-0.2824,-0.2858,-0.286,-0.2861,-0.2888,-0.2878,-0.2906,-0.2901,-0.2886,-0.2901,-0.2901,-0.2922,-0.2925,-0.2931,-0.2952,-0.2954,-0.2946,-0.2947,-0.2947,-0.2948,0,0,0,0,0,0,0,-0.2818,-0.2822,-0.2861,-0.2859,-0.2861,-0.2865,-0.2869,-0.2884,-0.2904,-0.2888,-0.2889,-0.2893,-0.2923,-0.293,-0.2932,-0.2954,-0.2946,-0.2947,-0.2948,-0.2949,-0.2986,-0.2986,0,0,0,0,0,0,-0.2814,-0.2821,-0.286,-0.2862,-0.284,-0.2866,-0.2871,-0.2879,-0.2904,-0.2907,-0.2893,-0.2894,-0.2927,-0.2931,-0.2934,-0.2947,-0.2947,-0.2949,-0.295,-0.2986,-0.2986,-0.2986,0,0,0,0,0,0,-0.2813,-0.2817,-0.2858,-0.2842,-0.2847,-0.2867,-0.2877,-0.288,-0.2887,-0.2908,-0.2911,-0.2897,-0.2927,-0.2932,-0.2946,-0.2949,-0.2949,-0.2951,-0.2986,-0.2986,-0.2986,-0.2973,0,0,0,0,0,0,-0.2811,-0.2817,-0.282,-0.2842,-0.2848,-0.287,-0.2877,-0.2881,-0.289,-0.2891,-0.2912,-0.2916,-0.2928,-0.2944,-0.2948,-0.2951,-0.2952,-0.2985,-0.2986,-0.2986,-0.2974,-0.2973,-0.2972,0,0,0,0,0,-0.2809,-0.2815,-0.282,-0.2825,-0.2853,-0.287,-0.2874,-0.2888,-0.289,-0.2894,-0.2907,-0.2915,-0.2948,-0.2945,-0.295,-0.2953,-0.2985,-0.2986,-0.2986,-0.2974,-0.2973,-0.2972,0,0,0,0,0,0,-0.2794,-0.2818,-0.2824,-0.2837,-0.2852,-0.2873,-0.2878,-0.2886,-0.29,-0.2901,-0.2918,-0.2922,-0.2935,-0.2946,-0.2943,-0.2964,-0.2967,-0.2968,-0.2957,-0.2956,-0.2956,-0.2953,-0.2953,0,0,0,0,0,-0.2792,-0.2803,-0.2824,-0.2834,-0.2841,-0.2858,-0.2866,-0.2876,-0.2891,-0.2897,-0.2912,-0.2926,-0.294,-0.2949,-0.2962,-0.2975,-0.298,-0.298,-0.2979,-0.2979,-0.2979,-0.2987,-0.2988,-0.2987,-0.2987,-0.2987,0,0,-0.2788,-0.2803,-0.2809,-0.2831,-0.2843,-0.2855,-0.2863,-0.2875,-0.2885,-0.2899,-0.2914,-0.2925,-0.2943,-0.2957,-0.2963,-0.2966,-0.2981,-0.2979,-0.2978,-0.2979,-0.2988,-0.2988,-0.2988,-0.2987,-0.2987,-0.2987,0,0,-0.2787,-0.2799,-0.2809,-0.2821,-0.2839,-0.2851,-0.2853,-0.2874,-0.2882,-0.2897,-0.2908,-0.2919,-0.2943,-0.2955,-0.2964,-0.2969,-0.2977,-0.2973,-0.297,-0.2977,-0.2977,-0.2978,-0.298,-0.298,-0.2973,-0.2973,-0.2973,0,-0.278,-0.2798,-0.2813,-0.2824,-0.2834,-0.2848,-0.2858,-0.2869,-0.2891,-0.2897,-0.2899,-0.2929,-0.2942,-0.2959,-0.296,-0.2967,-0.2971,-0.297,-0.2976,-0.2976,-0.2977,-0.2979,-0.298,-0.2973,-0.2973,-0.2973,-0.2973,0,-0.2789,-0.2801,-0.2807,-0.2828,-0.2838,-0.2849,-0.2865,-0.2874,-0.2883,-0.2894,-0.291,-0.2926,-0.2944,-0.2948,-0.2957,-0.2967,-0.2968,-0.2973,-0.2977,-0.2976,-0.2978,-0.2979,-0.2972,-0.2972,-0.2972,-0.2972,0,0,-0.2778,-0.2808,-0.2809,-0.2819,-0.2841,-0.2851,-0.2863,-0.288,-0.2887,-0.2902,-0.2912,-0.2932,-0.2937,-0.2947,-0.2958,-0.2964,-0.2968,-0.2969,-0.2969,-0.2968,-0.298,-0.2976,-0.2977,-0.2973,-0.2973,-0.2973,-0.2979,0,-0.2781,-0.2802,-0.2816,-0.2832,-0.2844,-0.2858,-0.2868,-0.2883,-0.2894,-0.2906,-0.2919,-0.2933,-0.2938,-0.2944,-0.2952,-0.2966,-0.297,-0.2965,-0.2983,-0.2984,-0.2978,-0.2978,-0.2974,-0.2978,-0.298,-0.298,-0.298,0,-0.2786,-0.28,-0.2818,-0.2838,-0.2844,-0.2853,-0.287,-0.2881,-0.2898,-0.2906,-0.2918,-0.2929,-0.2942,-0.2945,-0.2964,-0.296,-0.2969,-0.2977,-0.2977,-0.2979,-0.2982,-0.298,-0.298,-0.298,-0.2981,-0.2981,-0.2981,0,-0.2777,-0.2801,-0.2814,-0.2822,-0.2847,-0.2853,-0.2863,-0.288,-0.289,-0.2905,-0.2912,-0.2928,-0.2937,-0.295,-0.2965,-0.2965,-0.2982,-0.2986,-0.299,-0.2989,-0.2992,-0.2992,-0.2993,-0.2998,-0.2998,-0.2998,-0.2998,0,-0.2778,-0.2788,-0.2811,-0.2819,-0.2831,-0.2847,-0.2859,-0.287,-0.2885,-0.2897,-0.2909,-0.292,-0.2939,-0.2951,-0.2963,-0.2977,-0.2981,-0.2988,-0.2991,-0.2987,-0.2986,-0.2993,-0.2993,-0.2998,-0.2998,-0.2998,-0.2998,0,-0.277,-0.2786,-0.2801,-0.2823,-0.2829,-0.2837,-0.2856,-0.2865,-0.2877,-0.2891,-0.2895,-0.2915,-0.293,-0.2947,-0.2968,-0.2976,-0.299,-0.2994,-0.2984,-0.2986,-0.2988,-0.2988,-0.2994,-0.2996,-0.2998,-0.2998,-0.2998,0,-0.277,-0.2778,-0.2801,-0.2809,-0.2819,-0.2832,-0.2842,-0.2859,-0.2869,-0.2889,-0.2896,-0.2912,-0.2926,-0.2951,-0.2967,-0.2984,-0.2989,-0.299,-0.2991,-0.2987,-0.2989,-0.2988,-0.2989,-0.2989,-0.2989,-0.2989,-0.2989,0,-0.2767,-0.2775,-0.2788,-0.2805,-0.2817,-0.283,-0.2845,-0.2851,-0.287,-0.2881,-0.2897,-0.2908,-0.293,-0.2947,-0.2965,-0.2977,-0.2986,-0.2988,-0.299,-0.2986,-0.298,-0.2983,-0.2982,-0.2988,-0.2988,-0.2988,-0.2988,-0.2988,-0.2763,-0.2771,-0.2789,-0.2804,-0.2816,-0.283,-0.2839,-0.2853,-0.2867,-0.2886,-0.2895,-0.2911,-0.2929,-0.2955,-0.2966,-0.2979,-0.2982,-0.2984,-0.2985,-0.2985,-0.2984,-0.2977,-0.2983,-0.2983,-0.2983,-0.2983,-0.2983,0,-0.2762,-0.2774,-0.2788,-0.2807,-0.2819,-0.2827,-0.2844,-0.2853,-0.2867,-0.2883,-0.2897,-0.2916,-0.2932,-0.295,-0.2967,-0.2975,-0.298,-0.2979,-0.2978,-0.2981,-0.2981,-0.2978,-0.2975,-0.2975,-0.2975,-0.2975,-0.2975,-0.2975,-0.2762,-0.2776,-0.2786,-0.2807,-0.2819,-0.2835,-0.2844,-0.2857,-0.2869,-0.289,-0.2903,-0.2915,-0.2931,-0.295,-0.2966,-0.2971,-0.2977,-0.2975,-0.2981,-0.298,-0.2981,-0.2982,-0.2979,-0.2976,-0.2976,-0.298,-0.298,-0.298]}]]